Year,Month,Day,Hour,Minute,Value (Times are PST for windspeed in km/hr)
2017,08,25,00,00,11.80
2017,08,25,00,01,13.80
2017,08,25,00,02,11.00
2017,08,25,00,03,12.80
2017,08,25,00,04,11.30
2017,08,25,00,05,8.70
2017,08,25,00,06,11.60
2017,08,25,00,07,17.10
2017,08,25,00,08,9.00
2017,08,25,00,09,10.10
2017,08,25,00,10,11.80
2017,08,25,00,11,11.70
2017,08,25,00,12,12.50
2017,08,25,00,13,10.60
2017,08,25,00,14,9.50
2017,08,25,00,15,11.30
2017,08,25,00,16,13.60
2017,08,25,00,17,9.10
2017,08,25,00,18,13.50
2017,08,25,00,19,11.20
2017,08,25,00,20,9.10
2017,08,25,00,21,11.30
2017,08,25,00,22,12.30
2017,08,25,00,23,15.60
2017,08,25,00,24,10.50
2017,08,25,00,25,10.30
2017,08,25,00,26,10.90
2017,08,25,00,27,9.20
2017,08,25,00,28,11.60
2017,08,25,00,29,10.50
2017,08,25,00,30,13.60
2017,08,25,00,31,12.20
2017,08,25,00,32,13.20
2017,08,25,00,33,7.80
2017,08,25,00,34,11.30
2017,08,25,00,35,7.80
2017,08,25,00,36,9.30
2017,08,25,00,37,12.50
2017,08,25,00,38,10.70
2017,08,25,00,39,7.60
2017,08,25,00,40,9.70
2017,08,25,00,41,12.50
2017,08,25,00,42,8.40
2017,08,25,00,43,10.80
2017,08,25,00,44,10.00
2017,08,25,00,45,9.30
2017,08,25,00,46,10.40
2017,08,25,00,47,13.00
2017,08,25,00,48,12.60
2017,08,25,00,49,13.00
2017,08,25,00,50,9.90
2017,08,25,00,51,10.90
2017,08,25,00,52,11.30
2017,08,25,00,53,10.40
2017,08,25,00,54,8.40
2017,08,25,00,55,8.50
2017,08,25,00,56,8.20
2017,08,25,00,57,7.20
2017,08,25,00,58,7.30
2017,08,25,00,59,9.70
2017,08,25,01,00,9.50
2017,08,25,01,01,7.80
2017,08,25,01,02,5.90
2017,08,25,01,03,8.00
2017,08,25,01,04,8.50
2017,08,25,01,05,6.40
2017,08,25,01,06,6.00
2017,08,25,01,07,12.10
2017,08,25,01,08,6.40
2017,08,25,01,09,7.50
2017,08,25,01,10,10.30
2017,08,25,01,11,8.50
2017,08,25,01,12,8.30
2017,08,25,01,13,7.00
2017,08,25,01,14,7.20
2017,08,25,01,15,3.10
2017,08,25,01,16,7.70
2017,08,25,01,17,9.70
2017,08,25,01,18,6.30
2017,08,25,01,19,7.10
2017,08,25,01,20,8.60
2017,08,25,01,21,10.10
2017,08,25,01,22,5.50
2017,08,25,01,23,5.30
2017,08,25,01,24,4.30
2017,08,25,01,25,5.40
2017,08,25,01,26,7.60
2017,08,25,01,27,8.00
2017,08,25,01,28,9.70
2017,08,25,01,29,8.40
2017,08,25,01,30,7.10
2017,08,25,01,31,7.80
2017,08,25,01,32,10.20
2017,08,25,01,33,9.20
2017,08,25,01,34,10.70
2017,08,25,01,35,9.40
2017,08,25,01,36,7.40
2017,08,25,01,37,4.80
2017,08,25,01,38,7.10
2017,08,25,01,39,7.20
2017,08,25,01,40,8.50
2017,08,25,01,41,10.30
2017,08,25,01,42,10.80
2017,08,25,01,43,4.70
2017,08,25,01,44,8.40
2017,08,25,01,45,10.00
2017,08,25,01,46,7.70
2017,08,25,01,47,8.50
2017,08,25,01,48,8.10
2017,08,25,01,49,8.90
2017,08,25,01,50,6.60
2017,08,25,01,51,6.50
2017,08,25,01,52,6.10
2017,08,25,01,53,5.10
2017,08,25,01,54,6.80
2017,08,25,01,55,7.90
2017,08,25,01,56,7.40
2017,08,25,01,57,6.90
2017,08,25,01,58,7.20
2017,08,25,01,59,6.80
2017,08,25,02,00,4.50
2017,08,25,02,01,8.90
2017,08,25,02,02,8.70
2017,08,25,02,03,4.90
2017,08,25,02,04,5.90
2017,08,25,02,05,7.40
2017,08,25,02,06,4.50
2017,08,25,02,07,3.90
2017,08,25,02,08,5.50
2017,08,25,02,09,8.50
2017,08,25,02,10,8.70
2017,08,25,02,11,4.30
2017,08,25,02,12,7.10
2017,08,25,02,13,4.30
2017,08,25,02,14,3.10
2017,08,25,02,15,3.10
2017,08,25,02,16,4.10
2017,08,25,02,17,4.20
2017,08,25,02,18,5.00
2017,08,25,02,19,3.30
2017,08,25,02,20,4.30
2017,08,25,02,21,7.30
2017,08,25,02,22,8.40
2017,08,25,02,23,6.10
2017,08,25,02,24,6.90
2017,08,25,02,25,7.60
2017,08,25,02,26,5.50
2017,08,25,02,27,4.20
2017,08,25,02,28,7.40
2017,08,25,02,29,7.10
2017,08,25,02,30,10.80
2017,08,25,02,31,6.10
2017,08,25,02,32,2.80
2017,08,25,02,33,1.10
2017,08,25,02,34,4.30
2017,08,25,02,35,6.40
2017,08,25,02,36,7.20
2017,08,25,02,37,4.40
2017,08,25,02,38,2.70
2017,08,25,02,39,3.50
2017,08,25,02,40,0.40
2017,08,25,02,41,0.10
2017,08,25,02,42,0.10
2017,08,25,02,43,0.00
2017,08,25,02,44,0.00
2017,08,25,02,45,0.00
2017,08,25,02,46,0.00
2017,08,25,02,47,0.00
2017,08,25,02,48,0.00
2017,08,25,02,49,0.00
2017,08,25,02,50,0.00
2017,08,25,02,51,0.00
2017,08,25,02,52,0.00
2017,08,25,02,53,0.00
2017,08,25,02,54,0.00
2017,08,25,02,55,0.00
2017,08,25,02,56,0.00
2017,08,25,02,57,0.00
2017,08,25,02,58,0.00
2017,08,25,02,59,0.00
2017,08,25,03,00,0.00
2017,08,25,03,01,0.00
2017,08,25,03,02,0.00
2017,08,25,03,06,0.00
2017,08,25,03,07,0.00
2017,08,25,03,08,0.00
2017,08,25,03,09,0.80
2017,08,25,03,10,3.00
2017,08,25,03,11,3.40
2017,08,25,03,12,3.90
2017,08,25,03,13,4.60
2017,08,25,03,14,3.50
2017,08,25,03,15,0.20
2017,08,25,03,16,0.00
2017,08,25,03,17,0.80
2017,08,25,03,18,2.60
2017,08,25,03,19,5.20
2017,08,25,03,20,5.70
2017,08,25,03,21,5.50
2017,08,25,03,22,5.80
2017,08,25,03,23,3.70
2017,08,25,03,24,2.80
2017,08,25,03,25,4.60
2017,08,25,03,26,5.60
2017,08,25,03,27,2.70
2017,08,25,03,28,4.70
2017,08,25,03,29,6.00
2017,08,25,03,30,2.20
2017,08,25,03,31,1.70
2017,08,25,03,32,0.10
2017,08,25,03,33,0.00
2017,08,25,03,34,5.60
2017,08,25,03,35,6.80
2017,08,25,03,36,5.40
2017,08,25,03,37,4.70
2017,08,25,03,38,8.80
2017,08,25,03,39,5.30
2017,08,25,03,40,4.60
2017,08,25,03,41,2.50
2017,08,25,03,42,2.10
2017,08,25,03,43,2.90
2017,08,25,03,44,0.00
2017,08,25,03,45,0.00
2017,08,25,03,46,0.00
2017,08,25,03,47,0.00
2017,08,25,03,48,0.00
2017,08,25,03,49,0.00
2017,08,25,03,50,0.60
2017,08,25,03,51,4.60
2017,08,25,03,52,4.50
2017,08,25,03,53,5.80
2017,08,25,03,54,6.50
2017,08,25,03,55,4.10
2017,08,25,03,56,5.20
2017,08,25,03,57,4.30
2017,08,25,03,58,3.30
2017,08,25,03,59,2.00
2017,08,25,04,00,1.40
2017,08,25,04,01,3.40
2017,08,25,04,02,2.70
2017,08,25,04,03,4.10
2017,08,25,04,04,6.40
2017,08,25,04,05,2.60
2017,08,25,04,06,3.00
2017,08,25,04,07,3.40
2017,08,25,04,08,4.40
2017,08,25,04,09,4.40
2017,08,25,04,10,4.20
2017,08,25,04,11,3.30
2017,08,25,04,12,5.20
2017,08,25,04,13,3.80
2017,08,25,04,14,4.50
2017,08,25,04,15,1.40
2017,08,25,04,16,0.30
2017,08,25,04,17,0.50
2017,08,25,04,18,1.50
2017,08,25,04,19,0.00
2017,08,25,04,20,0.00
2017,08,25,04,21,1.30
2017,08,25,04,22,1.00
2017,08,25,04,23,0.00
2017,08,25,04,24,0.00
2017,08,25,04,25,0.00
2017,08,25,04,26,0.20
2017,08,25,04,27,0.00
2017,08,25,04,28,1.80
2017,08,25,04,29,2.10
2017,08,25,04,30,2.80
2017,08,25,04,31,3.70
2017,08,25,04,32,3.90
2017,08,25,04,33,2.60
2017,08,25,04,34,1.80
2017,08,25,04,35,6.10
2017,08,25,04,36,5.10
2017,08,25,04,37,5.70
2017,08,25,04,38,6.70
2017,08,25,04,39,2.80
2017,08,25,04,40,4.00
2017,08,25,04,41,7.00
2017,08,25,04,42,3.50
2017,08,25,04,43,5.20
2017,08,25,04,44,2.40
2017,08,25,04,45,3.50
2017,08,25,04,46,4.30
2017,08,25,04,47,3.70
2017,08,25,04,48,3.10
2017,08,25,04,49,3.50
2017,08,25,04,50,2.20
2017,08,25,04,51,2.30
2017,08,25,04,52,2.70
2017,08,25,04,53,3.00
2017,08,25,04,54,3.70
2017,08,25,04,55,2.80
2017,08,25,04,56,2.70
2017,08,25,04,57,3.40
2017,08,25,04,58,2.60
2017,08,25,04,59,3.10
2017,08,25,05,00,4.50
2017,08,25,05,01,3.40
2017,08,25,05,02,3.30
2017,08,25,05,03,3.20
2017,08,25,05,04,3.00
2017,08,25,05,05,2.60
2017,08,25,05,06,0.20
2017,08,25,05,07,1.10
2017,08,25,05,08,1.70
2017,08,25,05,09,2.60
2017,08,25,05,10,2.80
2017,08,25,05,11,2.60
2017,08,25,05,12,3.80
2017,08,25,05,13,4.70
2017,08,25,05,14,4.90
2017,08,25,05,15,4.50
2017,08,25,05,16,2.70
2017,08,25,05,17,4.50
2017,08,25,05,18,5.10
2017,08,25,05,19,3.20
2017,08,25,05,20,2.70
2017,08,25,05,21,3.30
2017,08,25,05,22,2.40
2017,08,25,05,23,2.10
2017,08,25,05,24,3.50
2017,08,25,05,25,1.20
2017,08,25,05,26,1.20
2017,08,25,05,27,0.00
2017,08,25,05,28,0.70
2017,08,25,05,29,0.70
2017,08,25,05,30,1.30
2017,08,25,05,31,4.00
2017,08,25,05,32,4.40
2017,08,25,05,33,3.00
2017,08,25,05,34,4.30
2017,08,25,05,35,3.40
2017,08,25,05,36,5.10
2017,08,25,05,37,3.70
2017,08,25,05,38,5.40
2017,08,25,05,39,5.10
2017,08,25,05,40,4.30
2017,08,25,05,41,5.00
2017,08,25,05,42,6.10
2017,08,25,05,43,8.70
2017,08,25,05,44,5.70
2017,08,25,05,45,4.10
2017,08,25,05,46,5.10
2017,08,25,05,47,5.80
2017,08,25,05,48,6.40
2017,08,25,05,49,6.60
2017,08,25,05,50,5.30
2017,08,25,05,51,4.70
2017,08,25,05,52,2.10
2017,08,25,05,53,3.80
2017,08,25,05,54,5.00
2017,08,25,05,55,7.30
2017,08,25,05,56,5.70
2017,08,25,05,57,3.10
2017,08,25,05,58,4.40
2017,08,25,05,59,4.80
2017,08,25,06,00,4.80
2017,08,25,06,01,7.10
2017,08,25,06,02,7.40
2017,08,25,06,03,4.70
2017,08,25,06,04,6.60
2017,08,25,06,05,3.70
2017,08,25,06,06,7.40
2017,08,25,06,07,7.20
2017,08,25,06,08,6.20
2017,08,25,06,09,4.70
2017,08,25,06,10,6.60
2017,08,25,06,11,5.20
2017,08,25,06,12,6.10
2017,08,25,06,13,6.50
2017,08,25,06,14,6.40
2017,08,25,06,15,4.80
2017,08,25,06,16,4.30
2017,08,25,06,17,5.20
2017,08,25,06,18,6.70
2017,08,25,06,19,8.30
2017,08,25,06,20,7.60
2017,08,25,06,21,5.30
2017,08,25,06,22,7.10
2017,08,25,06,23,3.60
2017,08,25,06,24,2.10
2017,08,25,06,25,0.10
2017,08,25,06,26,4.40
2017,08,25,06,27,6.10
2017,08,25,06,28,4.60
2017,08,25,06,29,6.30
2017,08,25,06,30,4.40
2017,08,25,06,31,6.10
2017,08,25,06,32,5.40
2017,08,25,06,33,6.30
2017,08,25,06,34,6.00
2017,08,25,06,35,7.20
2017,08,25,06,36,5.10
2017,08,25,06,37,3.30
2017,08,25,06,38,5.80
2017,08,25,06,39,2.50
2017,08,25,06,40,6.30
2017,08,25,06,41,6.40
2017,08,25,06,42,4.60
2017,08,25,06,43,5.50
2017,08,25,06,44,4.60
2017,08,25,06,45,4.70
2017,08,25,06,46,5.20
2017,08,25,06,47,5.90
2017,08,25,06,48,5.50
2017,08,25,06,49,5.10
2017,08,25,06,50,6.70
2017,08,25,06,51,6.80
2017,08,25,06,52,7.70
2017,08,25,06,53,5.50
2017,08,25,06,54,4.40
2017,08,25,06,55,4.50
2017,08,25,06,56,6.40
2017,08,25,06,57,6.60
2017,08,25,06,58,7.30
2017,08,25,06,59,6.70
2017,08,25,07,00,7.10
2017,08,25,07,01,5.80
2017,08,25,07,02,5.80
2017,08,25,07,03,4.40
2017,08,25,07,04,6.70
2017,08,25,07,05,5.50
2017,08,25,07,06,6.00
2017,08,25,07,07,7.10
2017,08,25,07,08,5.10
2017,08,25,07,09,7.90
2017,08,25,07,10,8.90
2017,08,25,07,11,3.90
2017,08,25,07,12,5.50
2017,08,25,07,13,4.30
2017,08,25,07,14,6.00
2017,08,25,07,15,4.10
2017,08,25,07,16,7.40
2017,08,25,07,17,4.90
2017,08,25,07,18,5.20
2017,08,25,07,19,8.20
2017,08,25,07,20,8.20
2017,08,25,07,21,6.30
2017,08,25,07,22,6.00
2017,08,25,07,23,5.60
2017,08,25,07,24,4.70
2017,08,25,07,25,5.40
2017,08,25,07,26,2.30
2017,08,25,07,27,7.40
2017,08,25,07,28,8.20
2017,08,25,07,29,3.20
2017,08,25,07,30,4.20
2017,08,25,07,31,5.70
2017,08,25,07,32,5.00
2017,08,25,07,33,6.20
2017,08,25,07,34,2.70
2017,08,25,07,35,5.10
2017,08,25,07,36,4.60
2017,08,25,07,37,4.80
2017,08,25,07,38,3.10
2017,08,25,07,39,4.30
2017,08,25,07,40,6.50
2017,08,25,07,41,3.70
2017,08,25,07,42,5.00
2017,08,25,07,43,4.20
2017,08,25,07,44,4.60
2017,08,25,07,45,5.10
2017,08,25,07,46,5.60
2017,08,25,07,47,4.70
2017,08,25,07,48,6.00
2017,08,25,07,49,4.60
2017,08,25,07,50,4.80
2017,08,25,07,51,3.50
2017,08,25,07,52,4.50
2017,08,25,07,53,3.70
2017,08,25,07,54,2.80
2017,08,25,07,55,4.30
2017,08,25,07,56,6.40
2017,08,25,07,57,5.40
2017,08,25,07,58,4.40
2017,08,25,07,59,2.40
2017,08,25,08,00,4.40
2017,08,25,08,01,5.30
2017,08,25,08,02,2.90
2017,08,25,08,03,5.00
2017,08,25,08,04,3.20
2017,08,25,08,05,1.60
2017,08,25,08,06,2.70
2017,08,25,08,07,5.20
2017,08,25,08,08,7.00
2017,08,25,08,09,4.40
2017,08,25,08,10,4.90
2017,08,25,08,11,2.70
2017,08,25,08,12,0.80
2017,08,25,08,13,0.00
2017,08,25,08,14,0.00
2017,08,25,08,15,0.00
2017,08,25,08,16,0.40
2017,08,25,08,17,3.00
2017,08,25,08,18,5.30
2017,08,25,08,19,3.20
2017,08,25,08,20,2.90
2017,08,25,08,21,4.30
2017,08,25,08,22,3.60
2017,08,25,08,23,2.20
2017,08,25,08,24,4.10
2017,08,25,08,25,5.40
2017,08,25,08,26,3.60
2017,08,25,08,27,3.40
2017,08,25,08,28,2.70
2017,08,25,08,29,4.50
2017,08,25,08,30,5.90
2017,08,25,08,31,4.80
2017,08,25,08,32,5.00
2017,08,25,08,33,4.60
2017,08,25,08,34,4.50
2017,08,25,08,35,0.90
2017,08,25,08,36,0.30
2017,08,25,08,37,1.00
2017,08,25,08,38,0.00
2017,08,25,08,39,2.00
2017,08,25,08,40,2.10
2017,08,25,08,41,3.20
2017,08,25,08,42,1.90
2017,08,25,08,43,3.10
2017,08,25,08,44,3.60
2017,08,25,08,45,2.80
2017,08,25,08,46,6.00
2017,08,25,08,47,6.50
2017,08,25,08,48,5.00
2017,08,25,08,49,7.00
2017,08,25,08,50,7.30
2017,08,25,08,51,5.10
2017,08,25,08,52,6.00
2017,08,25,08,53,6.50
2017,08,25,08,54,5.70
2017,08,25,08,55,6.40
2017,08,25,08,56,2.70
2017,08,25,08,57,7.80
2017,08,25,08,58,5.10
2017,08,25,08,59,6.10
2017,08,25,09,00,5.40
2017,08,25,09,01,5.10
2017,08,25,09,02,3.10
2017,08,25,09,03,3.40
2017,08,25,09,04,6.80
2017,08,25,09,05,5.60
2017,08,25,09,06,6.10
2017,08,25,09,07,4.10
2017,08,25,09,08,5.00
2017,08,25,09,09,3.80
2017,08,25,09,10,3.90
2017,08,25,09,11,5.70
2017,08,25,09,12,4.70
2017,08,25,09,13,3.90
2017,08,25,09,14,7.30
2017,08,25,09,15,5.70
2017,08,25,09,16,3.20
2017,08,25,09,17,1.30
2017,08,25,09,18,5.10
2017,08,25,09,19,3.60
2017,08,25,09,20,4.00
2017,08,25,09,21,5.30
2017,08,25,09,22,3.00
2017,08,25,09,23,3.60
2017,08,25,09,24,6.50
2017,08,25,09,25,6.30
2017,08,25,09,26,5.40
2017,08,25,09,27,5.70
2017,08,25,09,28,4.70
2017,08,25,09,29,2.60
2017,08,25,09,30,7.60
2017,08,25,09,31,8.60
2017,08,25,09,32,8.10
2017,08,25,09,33,5.90
2017,08,25,09,34,3.00
2017,08,25,09,35,4.60
2017,08,25,09,36,7.70
2017,08,25,09,37,8.50
2017,08,25,09,38,4.60
2017,08,25,09,39,6.40
2017,08,25,09,40,8.40
2017,08,25,09,41,6.00
2017,08,25,09,42,5.70
2017,08,25,09,43,5.90
2017,08,25,09,44,5.40
2017,08,25,09,45,4.00
2017,08,25,09,46,0.50
2017,08,25,09,47,6.60
2017,08,25,09,48,5.60
2017,08,25,09,49,4.40
2017,08,25,09,50,4.40
2017,08,25,09,51,5.10
2017,08,25,09,52,6.00
2017,08,25,09,53,2.90
2017,08,25,09,54,3.50
2017,08,25,09,55,3.30
2017,08,25,09,56,4.00
2017,08,25,09,57,3.90
2017,08,25,09,58,6.20
2017,08,25,09,59,3.80
2017,08,25,10,00,1.60
2017,08,25,10,01,0.00
2017,08,25,10,02,5.00
2017,08,25,10,03,1.60
2017,08,25,10,04,3.50
2017,08,25,10,05,2.20
2017,08,25,10,06,3.70
2017,08,25,10,07,4.90
2017,08,25,10,08,3.50
2017,08,25,10,09,3.10
2017,08,25,10,10,5.10
2017,08,25,10,11,4.90
2017,08,25,10,12,3.60
2017,08,25,10,13,2.50
2017,08,25,10,14,0.00
2017,08,25,10,15,0.10
2017,08,25,10,16,0.10
2017,08,25,10,17,3.20
2017,08,25,10,18,0.00
2017,08,25,10,19,2.70
2017,08,25,10,20,3.00
2017,08,25,10,21,3.60
2017,08,25,10,22,2.30
2017,08,25,10,23,0.20
2017,08,25,10,24,1.80
2017,08,25,10,25,2.70
2017,08,25,10,26,1.40
2017,08,25,10,27,4.10
2017,08,25,10,28,1.00
2017,08,25,10,29,0.00
2017,08,25,10,30,0.50
2017,08,25,10,31,0.00
2017,08,25,10,32,1.50
2017,08,25,10,33,0.60
2017,08,25,10,34,1.30
2017,08,25,10,35,0.10
2017,08,25,10,36,1.80
2017,08,25,10,37,0.20
2017,08,25,10,38,0.30
2017,08,25,10,39,1.40
2017,08,25,10,40,0.00
2017,08,25,10,41,3.20
2017,08,25,10,42,1.50
2017,08,25,10,43,0.00
2017,08,25,10,44,0.00
2017,08,25,10,45,2.10
2017,08,25,10,46,2.20
2017,08,25,10,47,3.00
2017,08,25,10,48,0.70
2017,08,25,10,49,2.20
2017,08,25,10,50,0.80
2017,08,25,10,51,1.80
2017,08,25,10,52,1.30
2017,08,25,10,53,1.00
2017,08,25,10,54,0.80
2017,08,25,10,55,4.80
2017,08,25,10,56,2.10
2017,08,25,10,57,1.50
2017,08,25,10,58,2.50
2017,08,25,10,59,3.50
2017,08,25,11,00,4.70
2017,08,25,11,01,6.10
2017,08,25,11,02,3.90
2017,08,25,11,03,0.30
2017,08,25,11,04,1.90
2017,08,25,11,05,1.00
2017,08,25,11,06,3.00
2017,08,25,11,07,3.80
2017,08,25,11,08,6.20
2017,08,25,11,09,3.60
2017,08,25,11,10,3.40
2017,08,25,11,11,5.60
2017,08,25,11,12,5.70
2017,08,25,11,13,2.90
2017,08,25,11,14,7.00
2017,08,25,11,15,6.60
2017,08,25,11,16,6.60
2017,08,25,11,17,2.70
2017,08,25,11,18,4.70
2017,08,25,11,19,1.90
2017,08,25,11,20,1.90
2017,08,25,11,21,4.30
2017,08,25,11,22,2.10
2017,08,25,11,23,3.30
2017,08,25,11,24,4.20
2017,08,25,11,25,3.20
2017,08,25,11,26,1.50
2017,08,25,11,27,2.10
2017,08,25,11,28,0.90
2017,08,25,11,29,1.60
2017,08,25,11,30,0.40
2017,08,25,11,31,2.20
2017,08,25,11,32,1.90
2017,08,25,11,33,1.90
2017,08,25,11,34,2.30
2017,08,25,11,35,0.00
2017,08,25,11,36,3.60
2017,08,25,11,37,2.80
2017,08,25,11,38,6.50
2017,08,25,11,39,6.00
2017,08,25,11,40,1.50
2017,08,25,11,41,2.60
2017,08,25,11,42,3.10
2017,08,25,11,43,1.00
2017,08,25,11,44,0.10
2017,08,25,11,45,1.30
2017,08,25,11,46,2.80
2017,08,25,11,47,3.10
2017,08,25,11,48,1.40
2017,08,25,11,49,3.80
2017,08,25,11,50,4.20
2017,08,25,11,51,2.40
2017,08,25,11,52,3.90
2017,08,25,11,53,3.30
2017,08,25,11,54,2.70
2017,08,25,11,55,2.70
2017,08,25,11,56,0.40
2017,08,25,11,57,0.40
2017,08,25,11,58,3.60
2017,08,25,11,59,1.50
2017,08,25,12,00,0.60
2017,08,25,12,01,3.40
2017,08,25,12,02,2.20
2017,08,25,12,03,0.70
2017,08,25,12,04,1.70
2017,08,25,12,05,2.70
2017,08,25,12,06,1.70
2017,08,25,12,07,3.50
2017,08,25,12,08,0.20
2017,08,25,12,09,0.40
2017,08,25,12,10,2.20
2017,08,25,12,11,2.40
2017,08,25,12,12,0.80
2017,08,25,12,13,0.00
2017,08,25,12,14,0.00
2017,08,25,12,15,0.00
2017,08,25,12,16,0.50
2017,08,25,12,17,1.90
2017,08,25,12,18,0.40
2017,08,25,12,19,0.00
2017,08,25,12,20,0.00
2017,08,25,12,21,1.10
2017,08,25,12,22,1.60
2017,08,25,12,23,3.90
2017,08,25,12,24,7.00
2017,08,25,12,25,3.10
2017,08,25,12,26,8.10
2017,08,25,12,27,2.70
2017,08,25,12,28,0.90
2017,08,25,12,29,1.50
2017,08,25,12,30,3.20
2017,08,25,12,31,1.30
2017,08,25,12,32,0.40
2017,08,25,12,33,4.60
2017,08,25,12,34,4.80
2017,08,25,12,35,1.80
2017,08,25,12,36,0.20
2017,08,25,12,37,0.00
2017,08,25,12,38,2.10
2017,08,25,12,39,3.90
2017,08,25,12,40,6.30
2017,08,25,12,41,2.20
2017,08,25,12,42,0.00
2017,08,25,12,43,1.30
2017,08,25,12,44,5.10
2017,08,25,12,45,2.90
2017,08,25,12,46,2.30
2017,08,25,12,47,2.70
2017,08,25,12,48,2.20
2017,08,25,12,49,0.90
2017,08,25,12,50,1.00
2017,08,25,12,51,1.40
2017,08,25,12,52,5.70
2017,08,25,12,53,3.90
2017,08,25,12,54,2.70
2017,08,25,12,55,4.80
2017,08,25,12,56,1.80
2017,08,25,12,57,2.00
2017,08,25,12,58,1.20
2017,08,25,12,59,1.40
2017,08,25,13,00,1.60
2017,08,25,13,01,0.70
2017,08,25,13,02,1.10
2017,08,25,13,03,1.30
2017,08,25,13,04,2.70
2017,08,25,13,05,0.90
2017,08,25,13,06,1.40
2017,08,25,13,07,2.40
2017,08,25,13,08,3.20
2017,08,25,13,09,1.80
2017,08,25,13,10,1.00
2017,08,25,13,11,2.70
2017,08,25,13,12,0.00
2017,08,25,13,13,0.00
2017,08,25,13,14,0.20
2017,08,25,13,15,0.70
2017,08,25,13,16,0.20
2017,08,25,13,17,1.00
2017,08,25,13,18,1.70
2017,08,25,13,19,0.40
2017,08,25,13,20,3.40
2017,08,25,13,21,4.10
2017,08,25,13,22,1.30
2017,08,25,13,23,4.50
2017,08,25,13,24,2.70
2017,08,25,13,25,4.00
2017,08,25,13,26,3.80
2017,08,25,13,27,3.90
2017,08,25,13,28,3.10
2017,08,25,13,29,3.80
2017,08,25,13,30,3.20
2017,08,25,13,31,6.40
2017,08,25,13,32,3.90
2017,08,25,13,33,3.90
2017,08,25,13,34,1.30
2017,08,25,13,35,3.30
2017,08,25,13,36,9.30
2017,08,25,13,37,3.90
2017,08,25,13,38,6.40
2017,08,25,13,39,0.70
2017,08,25,13,40,0.00
2017,08,25,13,41,0.00
2017,08,25,13,42,2.20
2017,08,25,13,43,0.40
2017,08,25,13,44,0.20
2017,08,25,13,45,0.60
2017,08,25,13,46,1.70
2017,08,25,13,47,0.40
2017,08,25,13,48,3.60
2017,08,25,13,49,0.70
2017,08,25,13,50,7.70
2017,08,25,13,51,6.50
2017,08,25,13,52,8.10
2017,08,25,13,53,3.90
2017,08,25,13,54,0.00
2017,08,25,13,55,2.20
2017,08,25,13,56,2.90
2017,08,25,13,57,7.50
2017,08,25,13,58,6.00
2017,08,25,13,59,2.90
2017,08,25,14,00,4.20
2017,08,25,14,01,4.90
2017,08,25,14,02,5.50
2017,08,25,14,03,7.40
2017,08,25,14,04,5.10
2017,08,25,14,05,8.20
2017,08,25,14,06,10.30
2017,08,25,14,07,8.00
2017,08,25,14,08,7.80
2017,08,25,14,09,7.80
2017,08,25,14,10,9.50
2017,08,25,14,11,5.10
2017,08,25,14,12,9.60
2017,08,25,14,13,7.90
2017,08,25,14,14,9.70
2017,08,25,14,15,9.00
2017,08,25,14,16,9.00
2017,08,25,14,17,10.40
2017,08,25,14,18,7.80
2017,08,25,14,19,7.10
2017,08,25,14,20,7.90
2017,08,25,14,21,5.50
2017,08,25,14,22,8.50
2017,08,25,14,23,8.20
2017,08,25,14,24,5.80
2017,08,25,14,25,7.20
2017,08,25,14,26,8.40
2017,08,25,14,27,8.60
2017,08,25,14,28,7.90
2017,08,25,14,29,4.70
2017,08,25,14,30,6.10
2017,08,25,14,31,6.80
2017,08,25,14,32,8.00
2017,08,25,14,33,6.40
2017,08,25,14,34,11.60
2017,08,25,14,35,8.20
2017,08,25,14,36,6.40
2017,08,25,14,37,5.20
2017,08,25,14,38,10.20
2017,08,25,14,39,5.60
2017,08,25,14,40,5.20
2017,08,25,14,41,7.00
2017,08,25,14,42,1.60
2017,08,25,14,43,1.90
2017,08,25,14,44,4.50
2017,08,25,14,45,3.90
2017,08,25,14,46,9.40
2017,08,25,14,47,5.10
2017,08,25,14,48,0.80
2017,08,25,14,49,4.10
2017,08,25,14,50,5.60
2017,08,25,14,51,6.70
2017,08,25,14,52,4.40
2017,08,25,14,53,1.60
2017,08,25,14,54,3.70
2017,08,25,14,55,1.20
2017,08,25,14,56,1.20
2017,08,25,14,57,0.00
2017,08,25,14,58,2.40
2017,08,25,14,59,2.00
2017,08,25,15,00,0.50
2017,08,25,15,01,2.40
2017,08,25,15,02,2.60
2017,08,25,15,03,3.40
2017,08,25,15,04,1.20
2017,08,25,15,05,4.50
2017,08,25,15,06,8.50
2017,08,25,15,07,7.60
2017,08,25,15,08,5.30
2017,08,25,15,09,4.10
2017,08,25,15,10,2.50
2017,08,25,15,11,9.40
2017,08,25,15,12,4.90
2017,08,25,15,13,0.50
2017,08,25,15,14,4.00
2017,08,25,15,15,4.70
2017,08,25,15,16,7.20
2017,08,25,15,17,0.50
2017,08,25,15,18,0.10
2017,08,25,15,19,0.80
2017,08,25,15,20,0.30
2017,08,25,15,21,0.00
2017,08,25,15,22,0.00
2017,08,25,15,23,0.00
2017,08,25,15,24,5.10
2017,08,25,15,25,5.60
2017,08,25,15,26,2.50
2017,08,25,15,27,0.10
2017,08,25,15,28,0.40
2017,08,25,15,29,1.90
2017,08,25,15,30,2.50
2017,08,25,15,31,1.10
2017,08,25,15,32,4.30
2017,08,25,15,33,7.60
2017,08,25,15,34,4.90
2017,08,25,15,35,0.20
2017,08,25,15,36,0.00
2017,08,25,15,37,4.30
2017,08,25,15,38,5.10
2017,08,25,15,39,6.80
2017,08,25,15,40,2.20
2017,08,25,15,41,6.60
2017,08,25,15,42,2.30
2017,08,25,15,43,0.00
2017,08,25,15,44,1.20
2017,08,25,15,45,0.60
2017,08,25,15,46,0.00
2017,08,25,15,47,0.10
2017,08,25,15,48,6.40
2017,08,25,15,49,2.50
2017,08,25,15,50,0.10
2017,08,25,15,51,0.30
2017,08,25,15,52,0.00
2017,08,25,15,53,2.30
2017,08,25,15,54,0.40
2017,08,25,15,55,0.60
2017,08,25,15,56,4.10
2017,08,25,15,57,3.30
2017,08,25,15,58,2.10
2017,08,25,15,59,0.60
2017,08,25,16,00,0.50
2017,08,25,16,01,1.70
2017,08,25,16,02,6.70
2017,08,25,16,03,5.40
2017,08,25,16,04,3.90
2017,08,25,16,05,3.80
2017,08,25,16,06,0.80
2017,08,25,16,07,5.50
2017,08,25,16,08,7.40
2017,08,25,16,09,9.50
2017,08,25,16,10,10.10
2017,08,25,16,11,11.50
2017,08,25,16,12,14.80
2017,08,25,16,13,8.80
2017,08,25,16,14,2.70
2017,08,25,16,15,9.00
2017,08,25,16,16,8.90
2017,08,25,16,17,4.90
2017,08,25,16,18,6.70
2017,08,25,16,19,8.90
2017,08,25,16,20,8.10
2017,08,25,16,21,5.60
2017,08,25,16,22,5.50
2017,08,25,16,23,1.10
2017,08,25,16,24,10.10
2017,08,25,16,25,3.10
2017,08,25,16,26,3.80
2017,08,25,16,27,1.30
2017,08,25,16,28,3.40
2017,08,25,16,29,4.50
2017,08,25,16,30,3.10
2017,08,25,16,31,0.10
2017,08,25,16,32,1.40
2017,08,25,16,33,6.00
2017,08,25,16,34,2.90
2017,08,25,16,35,7.40
2017,08,25,16,36,4.50
2017,08,25,16,37,10.00
2017,08,25,16,38,7.00
2017,08,25,16,39,4.00
2017,08,25,16,40,0.70
2017,08,25,16,41,0.50
2017,08,25,16,42,2.00
2017,08,25,16,43,0.10
2017,08,25,16,44,0.00
2017,08,25,16,45,0.00
2017,08,25,16,46,0.00
2017,08,25,16,47,0.00
2017,08,25,16,48,2.20
2017,08,25,16,49,3.50
2017,08,25,16,50,2.90
2017,08,25,16,51,5.60
2017,08,25,16,52,9.10
2017,08,25,16,53,4.40
2017,08,25,16,54,5.10
2017,08,25,16,55,4.80
2017,08,25,16,56,7.70
2017,08,25,16,57,2.90
2017,08,25,16,58,0.80
2017,08,25,16,59,7.60
2017,08,25,17,00,8.30
2017,08,25,17,01,8.70
2017,08,25,17,02,1.90
2017,08,25,17,03,2.50
2017,08,25,17,04,3.40
2017,08,25,17,05,1.60
2017,08,25,17,06,2.70
2017,08,25,17,07,2.10
2017,08,25,17,08,4.20
2017,08,25,17,09,5.10
2017,08,25,17,10,7.20
2017,08,25,17,11,5.30
2017,08,25,17,12,8.30
2017,08,25,17,13,11.30
2017,08,25,17,14,11.30
2017,08,25,17,15,8.40
2017,08,25,17,16,11.90
2017,08,25,17,17,10.20
2017,08,25,17,18,5.80
2017,08,25,17,19,5.40
2017,08,25,17,20,7.20
2017,08,25,17,21,6.90
2017,08,25,17,22,7.80
2017,08,25,17,23,2.30
2017,08,25,17,24,1.50
2017,08,25,17,25,5.40
2017,08,25,17,26,2.30
2017,08,25,17,27,2.30
2017,08,25,17,28,1.20
2017,08,25,17,29,2.00
2017,08,25,17,30,0.10
2017,08,25,17,31,5.30
2017,08,25,17,32,7.60
2017,08,25,17,33,6.80
2017,08,25,17,34,7.90
2017,08,25,17,35,5.20
2017,08,25,17,36,10.40
2017,08,25,17,37,6.50
2017,08,25,17,38,8.80
2017,08,25,17,39,9.00
2017,08,25,17,40,7.70
2017,08,25,17,41,2.80
2017,08,25,17,42,0.90
2017,08,25,17,43,3.50
2017,08,25,17,44,2.50
2017,08,25,17,45,2.60
2017,08,25,17,46,0.80
2017,08,25,17,47,2.90
2017,08,25,17,48,0.00
2017,08,25,17,49,0.00
2017,08,25,17,50,0.00
2017,08,25,17,51,0.20
2017,08,25,17,52,4.40
2017,08,25,17,53,4.10
2017,08,25,17,54,0.20
2017,08,25,17,55,2.20
2017,08,25,17,56,0.30
2017,08,25,17,57,7.20
2017,08,25,17,58,3.70
2017,08,25,17,59,0.70
2017,08,25,18,00,3.10
2017,08,25,18,01,1.20
2017,08,25,18,02,0.00
2017,08,25,18,03,0.00
2017,08,25,18,04,3.40
2017,08,25,18,05,2.80
2017,08,25,18,06,0.20